星链-32497 (STARLINK-32497)

导读 | 星芒AI

STARLINK-32497 是 SpaceX Starlink 卫星互联网项目中的一颗低轨通信卫星。该卫星属于 Starlink 群体部署的一部分,旨在为全球用户提供高速、低延迟的互联网服务。它运行在约 550 公里的轨道高度,采用先进通信技术,支持宽带数据传输。该计划致力于改善偏远地区的网络接入,同时推动全球数字化进程。

基本信息
目录编号:
62161
目录名称:
STARLINK-32497
国际标识:
2024-224Y
轨道中心:
EARTH
卫星名称:
星链-32497
卫星全名:
星链-32497 (STARLINK-32497)
卫星状态:
在轨 (已飞行339 天)
发射日期:
2024-11-30 UTC
国别 :
美国 (US)
星等 :
--
轨道信息
数据来源 国际轨道数据
星历时间: 2025-11-04T04:05:33+0800
12小时前
查看轨道信息
半长轴: 6861.134km
偏心率: 0.0001576
轨道倾角: 43.004°
近地点辐角 264.136°
升交点赤经 152.217°
平近点角 95.931°
近地点: 481.917km
远地点: 484.081km
周期: 94.266分钟
每日圈数: 15.275974
详细信息
固有亮度:
5
最大亮度:
2.5
卫星平台:
Starlink V1.0
覆盖范围:
全球
运营商:
太空探索技术公司
运营商所在国:
美国
制造商(研发单位):
太空探索技术公司
制造商所在国:
美国
使用方式:
暂无
卫星简介
Starlink 计划是 SpaceX 推出的全球卫星互联网项目,通过发射低轨道卫星,为全球尤其是偏远地区提供高速、低延迟的互联网服务。自 2019 年起,Starlink 已部署数千颗卫星,旨在缩小全球数字鸿沟,推动互联网普及。该项目还为军事、航空等行业提供通信支持,带来广泛经济效益。
2D轨道图
3D轨道图
轨道高度分析图
轨道倾角分析图
轨道综合分析图
查看轨道综合分析图